Tracking 20623 objects as of 3-Apr-2020
HD Live streaming from Space Station
objects crossing your sky now

SL-12 R/B(2)

Track SL-12 R/B(2) now!


NORAD ID: 25660
Int'l Code: 1999-013D
Perigee: 9,420.2 km
Apogee: 36,031.5 km
Inclination: 13.8 °
Period: 823.2 minutes
Semi major axis: 29096 km
RCS: 28.3579 m2 (large)
Launch date: March 21, 1999
Source: Commonwealth of Independent States (former USSR) (CIS)
Launch site: TYURATAM MISSILE AND SPACE COMPLEX (TTMTR)

Note: This is a ROCKET BODY
aabbcc
Your satellite tracking list
Your tracking list is empty




NASA's NSSDC Master Catalog

Two Line Element Set (TLE):
1 25660U 99013D   20093.51919170 -.00000135 +00000-0 +00000-0 0  9998
2 25660 013.8483 296.1124 4572880 089.3183 313.4441 01.74917729134431
Source of the keplerian elements: AFSPC